Location: Newark
(45.8667°N, 9.7333°E)
Time: 18:20:26
(UTC+00:00)

Vanguard 3 - Visible Passes

Search period start: 28 January 2020 00:00
Search period end: 07 February 2020 00:00
Orbit: 507 x 3264 km, 33.4° (Epoch: 28 January)

Date Brightness Start Highest point End Pass type
(mag) Time Alt. Az. Time Alt. Az. Time Alt. Az.
28 Jan 10.6 16:35:11 10° SW 16:53:37 51° SSE 17:09:54 10° E visible
28 Jan 10.0 18:50:06 10° WSW 19:08:48 52° S 19:16:12 33° SE visible
28 Jan 10.3 21:07:21 10° W 21:20:46 33° SW 21:20:46 33° SW visible
29 Jan 10.4 17:33:35 10° WSW 17:52:34 55° S 18:06:26 15° ESE visible
29 Jan 10.0 19:49:39 10° W 20:07:10 44° SSW 20:11:01 39° S visible
29 Jan 10.8 22:08:33 10° W 22:15:35 19° WSW 22:15:35 19° WSW visible
30 Jan 10.6 16:17:53 10° WSW 16:36:03 53° S 16:53:11 10° E visible
30 Jan 10.2 18:32:36 10° W 18:51:24 52° SSW 19:01:18 26° SE visible
30 Jan 10.3 20:49:47 10° W 21:04:54 33° SW 21:05:53 32° SSW visible
31 Jan 10.5 17:16:16 10° WSW 17:35:04 55° S 17:51:30 10° ESE visible
31 Jan 10.2 19:32:07 10° W 19:49:48 43° SSW 19:56:13 32° SSE visible
31 Jan 10.8 21:51:18 10° W 22:00:48 20° SW 22:00:48 20° SW visible
01 Feb 10.4 18:15:14 10° W 18:33:56 51° SSW 18:46:36 18° SE visible
01 Feb 10.4 20:32:19 10° W 20:47:32 31° SW 20:51:11 29° SSW visible
02 Feb 10.6 16:59:07 10° WSW 17:17:30 55° S 17:34:41 10° ESE visible
02 Feb 10.4 19:14:42 10° W 19:32:20 42° SSW 19:41:38 24° SSE visible
02 Feb 10.9 21:34:13 10° W 21:44:34 18° SW 21:46:13 18° SW visible
03 Feb 10.6 17:58:00 10° W 18:16:23 50° SSW 18:32:08 11° SE visible
03 Feb 10.6 20:14:59 10° W 20:30:05 30° SW 20:36:45 23° S visible
04 Feb 10.7 16:42:06 10° WSW 16:59:55 55° S 17:17:44 10° ESE visible
04 Feb 10.7 18:57:25 10° W 19:14:47 40° SSW 19:27:21 16° SSE visible
04 Feb 11.0 21:17:22 10° W 21:27:08 17° SW 21:31:57 15° SSW visible
05 Feb 10.7 17:40:54 10° W 17:58:47 49° SSW 18:15:30 10° SE visible
05 Feb 10.9 19:57:48 10° W 20:12:33 28° SW 20:22:39 15° S visible
06 Feb 10.9 18:40:18 10° W 18:57:11 38° SSW 19:12:17 10° SSE visible
06 Feb 11.2 21:00:53 10° W 21:09:38 15° SW 21:17:27 10° SSW visible
